START_TIME,STEP,MOV.,M34,t_acc.,L5,t_acc.,L18,t_acc.,L14,t_acc.
1980-11-16 03:00:13.300 ,4,0,0.,12.0,0.,12.0,0.,12.0,0.,12.0
1980-11-16 03:00:25.300 ,4,0,0.,12.0,0.,12.0,0.,12.0,0.,12.0
1980-11-16 03:00:37.300 ,5,1,0.,12.0,0.,12.0,0.,12.0,0.,12.0
1980-11-16 03:00:49.300 ,5,1,0.,12.0,0.,12.0,0.,12.0,0.,12.0
1980-11-16 03:01:01.300 ,5,0,0.,12.0,0.,12.0,0.,12.0,0.,12.0
1980-11-16 03:01:13.300 ,5,0,0.,12.0,0.,12.0,0.,12.0,0.,12.0
1980-11-16 03:01:25.300 ,6,1,0.,12.0,0.,12.0,0.,12.0,0.,12.0
1980-11-16 03:01:37.300 ,6,1,0.,12.0,0.,12.0,0.,12.0,0.,12.0
1980-11-16 03:01:49.300 ,6,0,0.,12.0,0.,12.0,0.,12.0,0.,12.0
1980-11-16 03:02:01.300 ,6,0,0.,12.0,0.,12.0,0.,12.0,0.,12.0
1980-11-16 03:02:13.300 ,7,1,0.,12.0,0.,12.0,0.,12.0,0.,12.0
1980-11-16 03:02:25.300 ,7,1,0.,12.0,4.,12.0,0.,12.0,0.,12.0
1980-11-16 03:02:37.300 ,7,0,0.,12.0,4.,12.0,0.,12.0,0.,12.0
1980-11-16 03:02:49.300 ,7,0,0.,12.0,3.,12.0,0.,12.0,0.,12.0
1980-11-16 03:03:01.300 ,7,1,0.,12.0,5.,12.0,0.,12.0,0.,12.0
1980-11-16 03:03:13.300 ,7,1,0.,12.0,3.,12.0,0.,12.0,0.,12.0
1980-11-16 03:03:25.300 ,7,0,0.,12.0,3.,12.0,0.,12.0,0.,12.0
1980-11-16 03:03:37.300 ,7,0,0.,12.0,4.,12.0,0.,12.0,0.,12.0
1980-11-16 03:03:49.300 ,6,1,0.,12.0,4.,12.0,0.,12.0,0.,12.0
1980-11-16 03:04:01.300 ,6,1,0.,12.0,0.,12.0,0.,12.0,0.,12.0
1980-11-16 03:04:13.300 ,6,0,0.,12.0,0.,12.0,0.,12.0,0.,12.0
1980-11-16 03:04:25.300 ,6,0,0.,12.0,0.,12.0,0.,12.0,0.,12.0
1980-11-16 03:04:37.300 ,5,1,0.,12.0,0.,12.0,0.,12.0,0.,12.0
1980-11-16 03:04:49.300 ,5,1,0.,12.0,0.,12.0,0.,12.0,0.,12.0
1980-11-16 03:05:01.300 ,5,0,0.,12.0,0.,12.0,0.,12.0,0.,12.0
1980-11-16 03:05:13.300 ,5,0,0.,12.0,0.,12.0,0.,12.0,0.,12.0
1980-11-16 03:05:25.300 ,4,1,0.,12.0,0.,12.0,0.,12.0,0.,12.0
1980-11-16 03:05:37.300 ,4,1,0.,12.0,0.,12.0,0.,12.0,0.,12.0
1980-11-16 03:05:49.300 ,4,0,0.,12.0,0.,12.0,0.,12.0,0.,12.0
1980-11-16 03:06:01.300 ,4,0,0.,12.0,0.,12.0,0.,12.0,0.,12.0
1980-11-16 03:06:13.300 ,3,1,0.,12.0,0.,12.0,0.,12.0,0.,12.0
1980-11-16 03:06:25.300 ,3,1,0.,12.0,0.,12.0,0.,12.0,0.,12.0
1980-11-16 03:06:37.300 ,3,0,0.,12.0,0.,12.0,0.,12.0,0.,12.0
1980-11-16 03:06:49.300 ,3,0,0.,12.0,0.,12.0,0.,12.0,0.,12.0
1980-11-16 03:07:01.300 ,2,1,0.,12.0,0.,12.0,0.,12.0,0.,12.0
1980-11-16 03:07:13.300 ,2,1,0.,12.0,0.,12.0,0.,12.0,0.,12.0
1980-11-16 03:07:25.300 ,2,0,0.,12.0,0.,12.0,0.,12.0,0.,12.0
1980-11-16 03:07:37.300 ,2,0,0.,12.0,0.,12.0,0.,12.0,0.,12.0
1980-11-16 03:07:49.300 ,1,1,0.,12.0,0.,12.0,0.,12.0,0.,12.0
1980-11-16 03:08:01.300 ,1,1,0.,12.0,0.,12.0,0.,12.0,0.,12.0
1980-11-16 03:08:13.300 ,1,0,0.,12.0,0.,12.0,0.,12.0,0.,12.0
1980-11-16 03:08:25.300 ,1,0,0.,12.0,0.,12.0,0.,12.0,0.,12.0
1980-11-16 03:08:37.300 ,0,1,0.,12.0,0.,12.0,0.,12.0,0.,12.0
1980-11-16 03:08:49.300 ,0,1,0.,12.0,0.,12.0,0.,12.0,0.,12.0
1980-11-16 03:09:01.300 ,0,0,0.,12.0,0.,12.0,0.,12.0,0.,12.0
1980-11-16 03:09:13.300 ,0,0,0.,12.0,0.,12.0,0.,12.0,0.,12.0
1980-11-16 03:09:25.300 ,0,1,0.,12.0,0.,12.0,0.,12.0,0.,12.0
1980-11-16 03:09:37.300 ,0,1,0.,12.0,0.,12.0,0.,12.0,0.,12.0
1980-11-16 03:09:49.300 ,0,0,0.,12.0,0.,12.0,0.,12.0,0.,12.0
1980-11-16 03:10:01.300 ,0,0,0.,12.0,0.,12.0,0.,12.0,0.,12.0
1980-11-16 03:10:13.300 ,1,1,0.,12.0,0.,12.0,0.,12.0,0.,12.0
1980-11-16 03:10:25.300 ,1,1,0.,12.0,0.,12.0,0.,12.0,0.,12.0
1980-11-16 03:10:37.300 ,1,0,0.,12.0,0.,12.0,0.,12.0,0.,12.0
1980-11-16 03:10:49.300 ,1,0,0.,12.0,0.,12.0,0.,12.0,0.,12.0
1980-11-16 03:11:01.300 ,2,1,0.,12.0,0.,12.0,0.,12.0,0.,12.0
1980-11-16 03:11:13.300 ,2,1,0.,12.0,0.,12.0,0.,12.0,0.,12.0
1980-11-16 03:11:25.300 ,2,0,0.,12.0,0.,12.0,0.,12.0,0.,12.0
1980-11-16 03:11:37.300 ,2,0,0.,12.0,0.,12.0,0.,12.0,0.,12.0
1980-11-16 03:11:49.300 ,3,1,0.,12.0,0.,12.0,0.,12.0,0.,12.0
1980-11-16 03:12:01.300 ,3,1,0.,12.0,0.,12.0,0.,12.0,0.,12.0
1980-11-16 03:12:13.300 ,3,0,0.,12.0,0.,12.0,0.,12.0,0.,12.0
1980-11-16 03:12:25.300 ,3,0,0.,12.0,0.,12.0,0.,12.0,0.,12.0
1980-11-16 03:12:37.300 ,4,1,0.,12.0,0.,12.0,0.,12.0,0.,12.0
1980-11-16 03:12:49.300 ,4,1,0.,12.0,0.,12.0,0.,12.0,0.,12.0
1980-11-16 03:13:01.300 ,4,0,0.,12.0,0.,12.0,0.,12.0,0.,12.0
1980-11-16 03:13:13.300 ,4,0,0.,12.0,0.,12.0,0.,12.0,0.,12.0
1980-11-16 03:13:25.300 ,5,1,0.,12.0,0.,12.0,0.,12.0,0.,12.0
1980-11-16 03:13:37.300 ,5,1,0.,12.0,0.,12.0,0.,12.0,0.,12.0
1980-11-16 03:13:49.300 ,5,0,0.,12.0,0.,12.0,0.,12.0,0.,12.0
1980-11-16 03:14:01.300 ,5,0,0.,12.0,0.,12.0,0.,12.0,0.,12.0
1980-11-16 03:14:13.300 ,6,1,0.,12.0,0.,12.0,0.,12.0,0.,12.0
1980-11-16 03:14:25.300 ,6,1,0.,12.0,0.,12.0,0.,12.0,0.,12.0
1980-11-16 03:14:37.300 ,6,0,0.,12.0,0.,12.0,0.,12.0,0.,12.0
1980-11-16 03:14:49.300 ,6,0,0.,12.0,0.,12.0,0.,12.0,0.,12.0
1980-11-16 03:15:01.300 ,7,1,0.,12.0,0.,12.0,0.,12.0,0.,12.0
1980-11-16 03:15:13.300 ,7,1,0.,12.0,1.,12.0,0.,12.0,0.,12.0
1980-11-16 03:15:25.300 ,7,0,0.,12.0,5.,12.0,0.,12.0,0.,12.0
1980-11-16 03:15:37.300 ,7,0,0.,12.0,1.,12.0,0.,12.0,0.,12.0
1980-11-16 03:15:49.300 ,7,1,0.,12.0,1.,12.0,0.,12.0,0.,12.0
1980-11-16 03:16:01.300 ,7,1,0.,12.0,5.,12.0,0.,12.0,0.,12.0
1980-11-16 03:16:13.300 ,7,0,0.,12.0,5.,12.0,0.,12.0,0.,12.0
1980-11-16 03:16:25.300 ,7,0,0.,12.0,4.,12.0,0.,12.0,0.,12.0
1980-11-16 03:16:37.300 ,6,1,0.,12.0,4.,12.0,0.,12.0,0.,12.0
1980-11-16 03:16:49.300 ,6,1,0.,12.0,0.,12.0,0.,12.0,0.,12.0
1980-11-16 03:17:01.300 ,6,0,0.,12.0,0.,12.0,0.,12.0,0.,12.0
1980-11-16 03:17:13.300 ,6,0,0.,12.0,0.,12.0,0.,12.0,0.,12.0
1980-11-16 03:17:25.300 ,5,1,0.,12.0,0.,12.0,0.,12.0,0.,12.0
1980-11-16 03:17:37.300 ,5,1,0.,12.0,0.,12.0,0.,12.0,0.,12.0
1980-11-16 03:17:49.300 ,5,0,0.,12.0,0.,12.0,0.,12.0,0.,12.0
1980-11-16 03:18:01.300 ,5,0,0.,12.0,0.,12.0,0.,12.0,0.,12.0
1980-11-16 03:18:13.300 ,4,1,0.,12.0,0.,12.0,0.,12.0,0.,12.0
1980-11-16 03:18:25.300 ,4,1,0.,12.0,0.,12.0,0.,12.0,0.,12.0
1980-11-16 03:18:37.300 ,4,0,0.,12.0,0.,12.0,0.,12.0,0.,12.0
1980-11-16 03:18:49.300 ,4,0,0.,12.0,0.,12.0,0.,12.0,0.,12.0
1980-11-16 03:19:01.300 ,3,1,0.,12.0,0.,12.0,0.,12.0,0.,12.0
1980-11-16 03:19:13.300 ,3,1,0.,12.0,0.,12.0,0.,12.0,0.,12.0
1980-11-16 03:19:25.300 ,3,0,0.,12.0,0.,12.0,0.,12.0,0.,12.0
1980-11-16 03:19:37.300 ,3,0,0.,12.0,0.,12.0,0.,12.0,0.,12.0
1980-11-16 03:19:49.300 ,2,1,0.,12.0,0.,12.0,0.,12.0,0.,12.0
1980-11-16 03:20:01.300 ,2,1,0.,12.0,0.,12.0,0.,12.0,0.,12.0
1980-11-16 03:20:13.300 ,2,0,0.,12.0,0.,12.0,0.,12.0,0.,12.0
1980-11-16 03:20:25.300 ,2,0,0.,12.0,0.,12.0,0.,12.0,0.,12.0
1980-11-16 03:20:37.300 ,1,1,0.,12.0,0.,12.0,0.,12.0,0.,12.0
1980-11-16 03:20:49.300 ,1,1,0.,12.0,0.,12.0,0.,12.0,0.,12.0
1980-11-16 03:21:01.300 ,1,0,0.,12.0,0.,12.0,0.,12.0,0.,12.0
1980-11-16 03:21:13.300 ,1,0,0.,12.0,0.,12.0,0.,12.0,0.,12.0
1980-11-16 03:21:25.300 ,0,1,0.,12.0,0.,12.0,0.,12.0,0.,12.0
1980-11-16 03:21:37.300 ,0,1,0.,12.0,0.,12.0,0.,12.0,0.,12.0
1980-11-16 03:21:49.300 ,0,0,0.,12.0,0.,12.0,0.,12.0,0.,12.0
1980-11-16 03:22:01.300 ,0,0,0.,12.0,0.,12.0,0.,12.0,0.,12.0
1980-11-16 03:22:13.300 ,0,1,0.,12.0,0.,12.0,0.,12.0,0.,12.0
1980-11-16 03:22:25.300 ,0,1,0.,12.0,0.,12.0,0.,12.0,0.,12.0
1980-11-16 03:22:37.300 ,0,0,0.,12.0,0.,12.0,0.,12.0,0.,12.0
1980-11-16 03:22:49.300 ,0,0,0.,12.0,0.,12.0,0.,12.0,0.,12.0
1980-11-16 03:23:01.300 ,1,1,0.,12.0,0.,12.0,0.,12.0,0.,12.0
1980-11-16 03:23:13.300 ,1,1,0.,12.0,0.,12.0,0.,12.0,0.,12.0
1980-11-16 03:23:25.300 ,1,0,0.,12.0,0.,12.0,0.,12.0,0.,12.0
1980-11-16 03:23:37.300 ,1,0,0.,12.0,0.,12.0,0.,12.0,0.,12.0
1980-11-16 03:23:49.300 ,2,1,0.,12.0,0.,12.0,0.,12.0,0.,12.0
1980-11-16 03:24:01.300 ,2,1,0.,12.0,0.,12.0,0.,12.0,0.,12.0
1980-11-16 03:24:13.300 ,2,0,0.,12.0,0.,12.0,0.,12.0,0.,12.0
1980-11-16 03:24:25.300 ,2,0,0.,12.0,0.,12.0,0.,12.0,0.,12.0
1980-11-16 03:24:37.300 ,3,1,0.,12.0,0.,12.0,0.,12.0,0.,12.0
1980-11-16 03:24:49.300 ,3,1,0.,12.0,0.,12.0,0.,12.0,0.,12.0
1980-11-16 03:25:01.300 ,3,0,0.,12.0,0.,12.0,0.,12.0,0.,12.0
1980-11-16 03:25:13.300 ,3,0,0.,12.0,0.,12.0,0.,12.0,0.,12.0
1980-11-16 03:25:25.300 ,4,1,0.,12.0,0.,12.0,0.,12.0,0.,12.0
1980-11-16 03:25:37.300 ,4,1,0.,12.0,0.,12.0,0.,12.0,0.,12.0
1980-11-16 03:25:49.300 ,4,0,0.,12.0,0.,12.0,0.,12.0,0.,12.0
1980-11-16 03:26:01.300 ,4,0,0.,12.0,0.,12.0,0.,12.0,0.,12.0
1980-11-16 03:26:13.300 ,5,1,0.,12.0,0.,12.0,0.,12.0,0.,12.0
1980-11-16 03:26:25.300 ,5,1,0.,12.0,0.,12.0,0.,12.0,0.,12.0
1980-11-16 03:26:37.300 ,5,0,0.,12.0,0.,12.0,0.,12.0,0.,12.0
1980-11-16 03:26:49.300 ,5,0,0.,12.0,0.,12.0,0.,12.0,0.,12.0
1980-11-16 03:27:01.300 ,6,1,0.,12.0,0.,12.0,0.,12.0,0.,12.0
1980-11-16 03:27:13.300 ,6,1,0.,12.0,0.,12.0,0.,12.0,0.,12.0
1980-11-16 03:27:25.300 ,6,0,0.,12.0,0.,12.0,0.,12.0,0.,12.0
1980-11-16 03:27:37.300 ,6,0,0.,12.0,0.,12.0,0.,12.0,0.,12.0
1980-11-16 03:27:49.300 ,7,1,0.,12.0,1.,12.0,0.,12.0,0.,12.0
1980-11-16 03:28:01.300 ,7,1,0.,12.0,2.,12.0,0.,12.0,0.,12.0
1980-11-16 03:28:13.300 ,7,0,0.,12.0,4.,12.0,0.,12.0,0.,12.0
1980-11-16 03:28:25.300 ,7,0,0.,12.0,4.,12.0,0.,12.0,0.,12.0
1980-11-16 03:28:37.300 ,7,1,0.,12.0,3.,12.0,0.,12.0,0.,12.0
1980-11-16 03:28:49.300 ,7,1,0.,12.0,1.,12.0,0.,12.0,0.,12.0
1980-11-16 03:29:01.300 ,7,0,0.,12.0,6.,12.0,0.,12.0,0.,12.0
1980-11-16 03:29:13.300 ,7,0,0.,12.0,0.,12.0,0.,12.0,0.,12.0
1980-11-16 03:29:25.300 ,6,1,0.,12.0,4.,12.0,0.,12.0,0.,12.0
1980-11-16 03:29:37.300 ,6,1,0.,12.0,2.,12.0,0.,12.0,0.,12.0
1980-11-16 03:29:49.300 ,6,0,0.,12.0,0.,12.0,0.,12.0,0.,12.0
1980-11-16 03:30:01.300 ,6,0,0.,12.0,0.,12.0,0.,12.0,0.,12.0
1980-11-16 03:30:13.300 ,5,1,0.,12.0,0.,12.0,0.,12.0,0.,12.0
1980-11-16 03:30:25.300 ,5,1,0.,12.0,0.,12.0,0.,12.0,0.,12.0
1980-11-16 03:30:37.300 ,5,0,0.,12.0,0.,12.0,0.,12.0,0.,12.0
1980-11-16 03:30:49.300 ,5,0,0.,12.0,0.,12.0,0.,12.0,0.,12.0
1980-11-16 03:31:01.300 ,4,1,0.,12.0,0.,12.0,0.,12.0,0.,12.0
1980-11-16 03:31:13.300 ,4,1,0.,12.0,0.,12.0,0.,12.0,0.,12.0
1980-11-16 03:31:25.300 ,4,0,0.,12.0,0.,12.0,0.,12.0,0.,12.0
1980-11-16 03:31:37.300 ,4,0,0.,12.0,0.,12.0,0.,12.0,0.,12.0
1980-11-16 03:31:49.300 ,3,1,0.,12.0,0.,12.0,0.,12.0,0.,12.0
1980-11-16 03:32:01.300 ,3,1,0.,12.0,0.,12.0,0.,12.0,0.,12.0
1980-11-16 03:32:13.300 ,3,0,0.,12.0,0.,12.0,0.,12.0,0.,12.0
1980-11-16 03:32:25.300 ,3,0,0.,12.0,0.,12.0,0.,12.0,0.,12.0
1980-11-16 03:32:37.300 ,2,1,0.,12.0,0.,12.0,0.,12.0,0.,12.0
1980-11-16 03:32:49.300 ,2,1,0.,12.0,0.,12.0,0.,12.0,0.,12.0
1980-11-16 03:33:01.300 ,2,0,0.,12.0,0.,12.0,0.,12.0,0.,12.0
1980-11-16 03:33:13.300 ,2,0,0.,12.0,0.,12.0,0.,12.0,0.,12.0
1980-11-16 03:33:25.300 ,1,1,0.,12.0,0.,12.0,0.,12.0,0.,12.0
1980-11-16 03:33:37.300 ,1,1,0.,12.0,0.,12.0,0.,12.0,0.,12.0
1980-11-16 03:33:49.300 ,1,0,0.,12.0,0.,12.0,0.,12.0,0.,12.0
1980-11-16 03:34:01.300 ,1,0,0.,12.0,0.,12.0,0.,12.0,0.,12.0
1980-11-16 03:34:13.300 ,0,1,1.,12.0,0.,12.0,0.,12.0,0.,12.0
1980-11-16 03:34:25.300 ,0,1,0.,12.0,0.,12.0,0.,12.0,0.,12.0
1980-11-16 03:34:37.300 ,0,0,0.,12.0,0.,12.0,0.,12.0,0.,12.0
1980-11-16 03:34:49.300 ,0,0,0.,12.0,0.,12.0,0.,12.0,0.,12.0
1980-11-16 03:35:01.300 ,0,1,0.,12.0,0.,12.0,0.,12.0,0.,12.0
1980-11-16 03:35:13.300 ,0,1,0.,12.0,0.,12.0,0.,12.0,0.,12.0
1980-11-16 03:35:25.300 ,0,0,0.,12.0,0.,12.0,0.,12.0,0.,12.0
1980-11-16 03:35:37.300 ,0,0,0.,12.0,0.,12.0,0.,12.0,0.,12.0
1980-11-16 03:35:49.300 ,1,1,0.,12.0,0.,12.0,0.,12.0,0.,12.0
1980-11-16 03:36:01.300 ,1,1,0.,12.0,0.,12.0,0.,12.0,0.,12.0
1980-11-16 03:36:13.300 ,1,0,0.,12.0,0.,12.0,0.,12.0,0.,12.0
1980-11-16 03:36:25.300 ,1,0,0.,12.0,0.,12.0,0.,12.0,0.,12.0
1980-11-16 03:36:37.300 ,2,1,0.,12.0,0.,12.0,0.,12.0,0.,12.0
1980-11-16 03:36:49.300 ,2,1,0.,12.0,0.,12.0,0.,12.0,0.,12.0
1980-11-16 03:37:01.300 ,2,0,0.,12.0,0.,12.0,0.,12.0,0.,12.0
1980-11-16 03:37:13.300 ,2,0,0.,12.0,0.,12.0,0.,12.0,0.,12.0
1980-11-16 03:37:25.300 ,3,1,0.,12.0,0.,12.0,0.,12.0,0.,12.0
1980-11-16 03:37:37.300 ,3,1,0.,12.0,0.,12.0,0.,12.0,0.,12.0
1980-11-16 03:37:49.300 ,3,0,0.,12.0,0.,12.0,0.,12.0,0.,12.0
1980-11-16 03:38:01.300 ,3,0,0.,12.0,0.,12.0,0.,12.0,0.,12.0
1980-11-16 03:38:13.300 ,4,1,0.,12.0,0.,12.0,0.,12.0,0.,12.0
1980-11-16 03:38:25.300 ,4,1,0.,12.0,0.,12.0,0.,12.0,0.,12.0
1980-11-16 03:38:37.300 ,4,0,0.,12.0,0.,12.0,0.,12.0,0.,12.0
1980-11-16 03:38:49.300 ,4,0,0.,12.0,0.,12.0,0.,12.0,0.,12.0
1980-11-16 03:39:01.300 ,5,1,0.,12.0,0.,12.0,0.,12.0,0.,12.0
1980-11-16 03:39:13.300 ,5,1,0.,12.0,0.,12.0,0.,12.0,0.,12.0
1980-11-16 03:39:25.300 ,5,0,0.,12.0,0.,12.0,0.,12.0,0.,12.0
1980-11-16 03:39:37.300 ,5,0,0.,12.0,0.,12.0,0.,12.0,0.,12.0
1980-11-16 03:39:49.300 ,6,1,0.,12.0,0.,12.0,0.,12.0,0.,12.0
1980-11-16 03:40:01.300 ,6,1,0.,12.0,0.,12.0,0.,12.0,0.,12.0
1980-11-16 03:40:13.300 ,6,0,0.,12.0,0.,12.0,0.,12.0,0.,12.0
1980-11-16 03:40:25.300 ,6,0,0.,12.0,0.,12.0,0.,12.0,0.,12.0
1980-11-16 03:40:37.300 ,7,1,0.,12.0,0.,12.0,0.,12.0,0.,12.0
1980-11-16 03:40:49.300 ,7,1,0.,12.0,1.,12.0,0.,12.0,0.,12.0
1980-11-16 03:41:01.300 ,7,0,0.,12.0,4.,12.0,0.,12.0,0.,12.0
1980-11-16 03:41:13.300 ,7,0,0.,12.0,1.,12.0,0.,12.0,0.,12.0
1980-11-16 03:41:25.300 ,7,1,0.,12.0,6.,12.0,0.,12.0,0.,12.0
1980-11-16 03:41:37.300 ,7,1,0.,12.0,2.,12.0,0.,12.0,0.,12.0
1980-11-16 03:41:49.300 ,7,0,0.,12.0,5.,12.0,0.,12.0,0.,12.0
1980-11-16 03:42:01.300 ,7,0,0.,12.0,4.,12.0,0.,12.0,0.,12.0
1980-11-16 03:42:13.300 ,6,1,0.,12.0,3.,12.0,0.,12.0,0.,12.0
1980-11-16 03:42:25.300 ,6,1,0.,12.0,1.,12.0,0.,12.0,0.,12.0
1980-11-16 03:42:37.300 ,6,0,0.,12.0,0.,12.0,0.,12.0,0.,12.0
1980-11-16 03:42:49.300 ,6,0,0.,12.0,0.,12.0,0.,12.0,0.,12.0
1980-11-16 03:43:01.300 ,5,1,0.,12.0,0.,12.0,0.,12.0,0.,12.0
1980-11-16 03:43:13.300 ,5,1,0.,12.0,0.,12.0,0.,12.0,0.,12.0
1980-11-16 03:43:25.300 ,5,0,0.,12.0,0.,12.0,0.,12.0,0.,12.0
1980-11-16 03:43:37.300 ,5,0,0.,12.0,0.,12.0,0.,12.0,0.,12.0
1980-11-16 03:43:49.300 ,4,1,0.,12.0,0.,12.0,0.,12.0,0.,12.0
1980-11-16 03:44:01.300 ,4,1,0.,12.0,0.,12.0,0.,12.0,0.,12.0
1980-11-16 03:44:13.300 ,4,0,0.,12.0,0.,12.0,0.,12.0,0.,12.0
1980-11-16 03:44:25.300 ,4,0,0.,12.0,0.,12.0,0.,12.0,0.,12.0
1980-11-16 03:44:37.300 ,3,1,0.,12.0,0.,12.0,0.,12.0,0.,12.0
1980-11-16 03:44:49.300 ,3,1,0.,12.0,0.,12.0,0.,12.0,0.,12.0
1980-11-16 03:45:01.300 ,3,0,0.,12.0,0.,12.0,0.,12.0,0.,12.0
1980-11-16 03:45:13.300 ,3,0,0.,12.0,0.,12.0,0.,12.0,0.,12.0
1980-11-16 03:45:25.300 ,2,1,0.,12.0,0.,12.0,0.,12.0,0.,12.0
1980-11-16 03:45:37.300 ,2,1,0.,12.0,0.,12.0,0.,12.0,0.,12.0
1980-11-16 03:45:49.300 ,2,0,0.,12.0,0.,12.0,0.,12.0,0.,12.0
1980-11-16 03:46:01.300 ,2,0,0.,12.0,0.,12.0,0.,12.0,0.,12.0
1980-11-16 03:46:13.300 ,1,1,0.,12.0,0.,12.0,0.,12.0,0.,12.0
1980-11-16 03:46:25.300 ,1,1,0.,12.0,0.,12.0,0.,12.0,0.,12.0
1980-11-16 03:46:37.300 ,1,0,0.,12.0,0.,12.0,0.,12.0,0.,12.0
1980-11-16 03:46:49.300 ,1,0,0.,12.0,0.,12.0,0.,12.0,0.,12.0
1980-11-16 03:47:01.300 ,0,1,0.,12.0,0.,12.0,0.,12.0,0.,12.0
1980-11-16 03:47:13.300 ,0,1,0.,12.0,0.,12.0,0.,12.0,0.,12.0
1980-11-16 03:47:25.300 ,0,0,0.,12.0,0.,12.0,0.,12.0,0.,12.0
1980-11-16 03:47:37.300 ,0,0,0.,12.0,0.,12.0,0.,12.0,0.,12.0
1980-11-16 03:47:49.300 ,0,1,0.,12.0,0.,12.0,0.,12.0,0.,12.0
1980-11-16 03:48:01.300 ,0,1,0.,12.0,0.,12.0,0.,12.0,0.,12.0
1980-11-16 03:48:13.300 ,0,0,0.,12.0,0.,12.0,0.,12.0,0.,12.0
1980-11-16 03:48:25.300 ,0,0,0.,12.0,0.,12.0,0.,12.0,0.,12.0
1980-11-16 03:48:37.300 ,1,1,0.,12.0,0.,12.0,0.,12.0,0.,12.0
1980-11-16 03:48:49.300 ,1,1,0.,12.0,0.,12.0,0.,12.0,0.,12.0
1980-11-16 03:49:01.300 ,1,0,0.,12.0,0.,12.0,0.,12.0,0.,12.0
1980-11-16 03:49:13.300 ,1,0,0.,12.0,0.,12.0,0.,12.0,0.,12.0
1980-11-16 03:49:25.300 ,2,1,0.,12.0,0.,12.0,0.,12.0,0.,12.0
1980-11-16 03:49:37.300 ,2,1,0.,12.0,0.,12.0,0.,12.0,0.,12.0
1980-11-16 03:49:49.300 ,2,0,0.,12.0,0.,12.0,0.,12.0,0.,12.0
1980-11-16 03:50:01.300 ,2,0,0.,12.0,0.,12.0,0.,12.0,0.,12.0
1980-11-16 03:50:13.300 ,3,1,0.,12.0,0.,12.0,0.,12.0,0.,12.0
1980-11-16 03:50:25.300 ,3,1,0.,12.0,0.,12.0,0.,12.0,0.,12.0
1980-11-16 03:50:37.300 ,3,0,0.,12.0,0.,12.0,0.,12.0,0.,12.0
1980-11-16 03:50:49.300 ,3,0,0.,12.0,0.,12.0,0.,12.0,0.,12.0
1980-11-16 03:51:01.300 ,4,1,0.,12.0,0.,12.0,0.,12.0,0.,12.0
1980-11-16 03:51:13.300 ,4,1,0.,12.0,0.,12.0,0.,12.0,0.,12.0
1980-11-16 03:51:25.300 ,4,0,0.,12.0,0.,12.0,0.,12.0,0.,12.0
1980-11-16 03:51:37.300 ,4,0,0.,12.0,0.,12.0,0.,12.0,0.,12.0
1980-11-16 03:51:49.300 ,5,1,0.,12.0,0.,12.0,0.,12.0,0.,12.0
1980-11-16 03:52:01.300 ,5,1,0.,12.0,0.,12.0,0.,12.0,0.,12.0
1980-11-16 03:52:13.300 ,5,0,0.,12.0,0.,12.0,0.,12.0,0.,12.0
1980-11-16 03:52:25.300 ,5,0,0.,12.0,0.,12.0,0.,12.0,0.,12.0
1980-11-16 03:52:37.300 ,6,1,0.,12.0,0.,12.0,0.,12.0,0.,12.0
1980-11-16 03:52:49.300 ,6,1,0.,12.0,0.,12.0,0.,12.0,0.,12.0
1980-11-16 03:53:01.300 ,6,0,0.,12.0,0.,12.0,0.,12.0,0.,12.0
1980-11-16 03:53:13.300 ,6,0,0.,12.0,0.,12.0,0.,12.0,0.,12.0
1980-11-16 03:53:25.300 ,7,1,0.,12.0,0.,12.0,0.,12.0,1.,12.0
1980-11-16 03:53:37.300 ,7,1,0.,12.0,3.,12.0,0.,12.0,0.,12.0
1980-11-16 03:53:49.300 ,7,0,0.,12.0,0.,12.0,0.,12.0,0.,12.0
1980-11-16 03:54:01.300 ,7,0,0.,12.0,2.,12.0,0.,12.0,0.,12.0
1980-11-16 03:54:13.300 ,7,1,0.,12.0,4.,12.0,0.,12.0,0.,12.0
1980-11-16 03:54:25.300 ,7,1,0.,12.0,3.,12.0,0.,12.0,0.,12.0
1980-11-16 03:54:37.300 ,7,0,0.,12.0,4.,12.0,0.,12.0,0.,12.0
1980-11-16 03:54:49.300 ,7,0,0.,12.0,1.,12.0,0.,12.0,0.,12.0
1980-11-16 03:55:01.300 ,6,1,0.,12.0,4.,12.0,0.,12.0,0.,12.0
1980-11-16 03:55:13.300 ,6,1,0.,12.0,1.,12.0,0.,12.0,0.,12.0
1980-11-16 03:55:25.300 ,6,0,0.,12.0,0.,12.0,0.,12.0,0.,12.0
1980-11-16 03:55:37.300 ,6,0,0.,12.0,0.,12.0,0.,12.0,0.,12.0
1980-11-16 03:55:49.300 ,5,1,0.,12.0,0.,12.0,0.,12.0,0.,12.0
1980-11-16 03:56:01.300 ,5,1,0.,12.0,0.,12.0,0.,12.0,0.,12.0
1980-11-16 03:56:13.300 ,5,0,0.,12.0,0.,12.0,0.,12.0,0.,12.0
1980-11-16 03:56:25.300 ,5,0,0.,12.0,0.,12.0,0.,12.0,0.,12.0
1980-11-16 03:56:37.300 ,4,1,0.,12.0,0.,12.0,0.,12.0,0.,12.0
1980-11-16 03:56:49.300 ,4,1,0.,12.0,0.,12.0,0.,12.0,0.,12.0
1980-11-16 03:57:01.300 ,4,0,0.,12.0,0.,12.0,0.,12.0,0.,12.0
1980-11-16 03:57:13.300 ,4,0,0.,12.0,0.,12.0,0.,12.0,0.,12.0
1980-11-16 03:57:25.300 ,3,1,0.,12.0,0.,12.0,0.,12.0,0.,12.0
1980-11-16 03:57:37.300 ,3,1,0.,12.0,0.,12.0,0.,12.0,0.,12.0
1980-11-16 03:57:49.300 ,3,0,0.,12.0,0.,12.0,0.,12.0,0.,12.0
1980-11-16 03:58:01.300 ,3,0,0.,12.0,0.,12.0,0.,12.0,0.,12.0
1980-11-16 03:58:13.300 ,2,1,0.,12.0,0.,12.0,0.,12.0,0.,12.0
1980-11-16 03:58:25.300 ,2,1,0.,12.0,0.,12.0,0.,12.0,0.,12.0
1980-11-16 03:58:37.300 ,2,0,0.,12.0,0.,12.0,0.,12.0,0.,12.0
1980-11-16 03:58:49.300 ,2,0,0.,12.0,0.,12.0,0.,12.0,0.,12.0
1980-11-16 03:59:01.300 ,1,1,0.,12.0,0.,12.0,0.,12.0,0.,12.0
1980-11-16 03:59:13.300 ,1,1,0.,12.0,0.,12.0,0.,12.0,0.,12.0
1980-11-16 03:59:25.300 ,1,0,0.,12.0,0.,12.0,0.,12.0,0.,12.0
1980-11-16 03:59:37.300 ,1,0,0.,12.0,0.,12.0,0.,12.0,0.,12.0
1980-11-16 03:59:49.300 ,0,1,0.,12.0,0.,12.0,0.,12.0,0.,12.0
1980-11-16 04:00:01.300 ,0,1,0.,12.0,0.,12.0,0.,12.0,0.,12.0
1980-11-16 04:00:13.300 ,0,0,0.,12.0,0.,12.0,0.,12.0,0.,12.0
1980-11-16 04:00:25.300 ,0,0,0.,12.0,0.,12.0,0.,12.0,0.,12.0
1980-11-16 04:00:37.300 ,0,1,0.,12.0,0.,12.0,0.,12.0,0.,12.0
1980-11-16 04:00:49.300 ,0,1,0.,12.0,0.,12.0,0.,12.0,0.,12.0
1980-11-16 04:01:01.300 ,0,0,0.,12.0,0.,12.0,0.,12.0,0.,12.0
1980-11-16 04:01:13.300 ,0,0,0.,12.0,0.,12.0,0.,12.0,0.,12.0
1980-11-16 04:01:25.300 ,1,1,0.,12.0,0.,12.0,0.,12.0,0.,12.0
1980-11-16 04:01:37.300 ,1,1,0.,12.0,0.,12.0,0.,12.0,0.,12.0
1980-11-16 04:01:49.300 ,1,0,0.,12.0,0.,12.0,0.,12.0,0.,12.0
1980-11-16 04:02:01.300 ,1,0,0.,12.0,0.,12.0,0.,12.0,0.,12.0
1980-11-16 04:02:13.300 ,2,1,0.,12.0,0.,12.0,0.,12.0,0.,12.0
1980-11-16 04:02:25.300 ,2,1,0.,12.0,0.,12.0,0.,12.0,0.,12.0
1980-11-16 04:02:37.300 ,2,0,0.,12.0,0.,12.0,0.,12.0,0.,12.0
1980-11-16 04:02:49.300 ,2,0,0.,12.0,0.,12.0,0.,12.0,0.,12.0
1980-11-16 04:03:01.300 ,3,1,0.,12.0,0.,12.0,0.,12.0,0.,12.0
1980-11-16 04:03:13.300 ,3,1,0.,12.0,0.,12.0,0.,12.0,0.,12.0
1980-11-16 04:03:25.300 ,3,0,0.,12.0,0.,12.0,0.,12.0,0.,12.0
1980-11-16 04:03:37.300 ,3,0,0.,12.0,0.,12.0,0.,12.0,0.,12.0
1980-11-16 04:03:49.300 ,4,1,0.,12.0,0.,12.0,0.,12.0,0.,12.0
1980-11-16 04:04:01.300 ,4,1,0.,12.0,0.,12.0,0.,12.0,0.,12.0
1980-11-16 04:04:13.300 ,4,0,0.,12.0,0.,12.0,0.,12.0,0.,12.0
1980-11-16 04:04:25.300 ,4,0,0.,12.0,0.,12.0,0.,12.0,0.,12.0
1980-11-16 04:04:37.300 ,5,1,0.,12.0,0.,12.0,0.,12.0,0.,12.0
1980-11-16 04:04:49.300 ,5,1,0.,12.0,0.,12.0,0.,12.0,0.,12.0
1980-11-16 04:05:01.300 ,5,0,0.,12.0,0.,12.0,0.,12.0,0.,12.0
1980-11-16 04:05:13.300 ,5,0,0.,12.0,0.,12.0,0.,12.0,0.,12.0
1980-11-16 04:05:25.300 ,6,1,0.,12.0,0.,12.0,0.,12.0,0.,12.0
1980-11-16 04:05:37.300 ,6,1,0.,12.0,0.,12.0,0.,12.0,0.,12.0
1980-11-16 04:05:49.300 ,6,0,0.,12.0,0.,12.0,0.,12.0,0.,12.0
1980-11-16 04:06:01.300 ,6,0,0.,12.0,0.,12.0,0.,12.0,0.,12.0
1980-11-16 04:06:13.300 ,7,1,0.,12.0,0.,12.0,0.,12.0,0.,12.0
1980-11-16 04:06:25.300 ,7,1,0.,12.0,3.,12.0,0.,12.0,0.,12.0
1980-11-16 04:06:37.300 ,7,0,0.,12.0,1.,12.0,0.,12.0,0.,12.0
1980-11-16 04:06:49.300 ,7,0,0.,12.0,2.,12.0,0.,12.0,0.,12.0
1980-11-16 04:07:01.300 ,7,1,0.,12.0,2.,12.0,0.,12.0,0.,12.0
1980-11-16 04:07:13.300 ,7,1,0.,12.0,2.,12.0,0.,12.0,0.,12.0
1980-11-16 04:07:25.300 ,7,0,0.,12.0,3.,12.0,0.,12.0,0.,12.0
1980-11-16 04:07:37.300 ,7,0,0.,12.0,5.,12.0,0.,12.0,0.,12.0
1980-11-16 04:07:49.300 ,6,1,0.,12.0,3.,12.0,0.,12.0,0.,12.0
1980-11-16 04:08:01.300 ,6,1,0.,12.0,1.,12.0,0.,12.0,0.,12.0
1980-11-16 04:08:13.300 ,6,0,0.,12.0,0.,12.0,0.,12.0,0.,12.0
1980-11-16 04:08:25.300 ,6,0,0.,12.0,0.,12.0,0.,12.0,0.,12.0
1980-11-16 04:08:37.300 ,5,1,0.,12.0,0.,12.0,0.,12.0,0.,12.0
1980-11-16 04:08:49.300 ,5,1,0.,12.0,0.,12.0,0.,12.0,0.,12.0
1980-11-16 04:09:01.300 ,5,0,0.,12.0,0.,12.0,0.,12.0,0.,12.0
1980-11-16 04:09:13.300 ,5,0,0.,12.0,0.,12.0,0.,12.0,0.,12.0
1980-11-16 04:09:25.300 ,4,1,0.,12.0,1.,12.0,0.,12.0,0.,12.0
1980-11-16 04:09:37.300 ,4,1,0.,12.0,0.,12.0,0.,12.0,0.,12.0
1980-11-16 04:09:49.300 ,4,0,0.,12.0,0.,12.0,0.,12.0,0.,12.0
1980-11-16 04:10:01.300 ,4,0,0.,12.0,0.,12.0,0.,12.0,0.,12.0
1980-11-16 04:10:13.300 ,3,1,0.,12.0,0.,12.0,0.,12.0,0.,12.0
1980-11-16 04:10:25.300 ,3,1,0.,12.0,0.,12.0,0.,12.0,0.,12.0
1980-11-16 04:10:37.300 ,3,0,0.,12.0,0.,12.0,0.,12.0,0.,12.0
1980-11-16 04:10:49.300 ,3,0,0.,12.0,0.,12.0,0.,12.0,0.,12.0
1980-11-16 04:11:01.300 ,2,1,0.,12.0,0.,12.0,0.,12.0,0.,12.0
1980-11-16 04:11:13.300 ,2,1,0.,12.0,0.,12.0,0.,12.0,0.,12.0
1980-11-16 04:11:25.300 ,2,0,0.,12.0,1.,12.0,0.,12.0,0.,12.0
1980-11-16 04:11:37.300 ,2,0,0.,12.0,0.,12.0,0.,12.0,0.,12.0
1980-11-16 04:12:37.300 ,0,0,0.,12.0,0.,12.0,0.,12.0,0.,12.0
1980-11-16 04:12:49.300 ,0,0,0.,12.0,0.,12.0,0.,12.0,0.,12.0
1980-11-16 04:13:01.300 ,0,0,0.,12.0,0.,12.0,0.,12.0,0.,12.0
1980-11-16 04:13:13.300 ,0,0,0.,12.0,0.,12.0,0.,12.0,0.,12.0
1980-11-16 04:13:25.300 ,0,1,0.,12.0,0.,12.0,0.,12.0,0.,12.0
1980-11-16 04:13:37.300 ,0,1,0.,12.0,0.,12.0,0.,12.0,0.,12.0
1980-11-16 04:13:49.300 ,0,0,0.,12.0,0.,12.0,0.,12.0,0.,12.0
1980-11-16 04:14:01.300 ,0,0,0.,12.0,0.,12.0,0.,12.0,0.,12.0
1980-11-16 04:14:13.300 ,1,1,,0,,0,,0,,0
1980-11-16 04:14:25.300 ,1,1,0.,12.0,0.,12.0,0.,12.0,0.,12.0
1980-11-16 04:14:37.300 ,1,0,0.,12.0,0.,12.0,0.,12.0,0.,12.0
1980-11-16 04:14:49.300 ,1,0,0.,12.0,0.,12.0,0.,12.0,0.,12.0
1980-11-16 04:15:01.300 ,2,1,0.,12.0,0.,12.0,0.,12.0,0.,12.0
1980-11-16 04:15:13.300 ,2,1,0.,12.0,0.,12.0,0.,12.0,0.,12.0
1980-11-16 04:15:25.300 ,2,0,0.,12.0,0.,12.0,0.,12.0,0.,12.0
1980-11-16 04:15:37.300 ,2,0,0.,12.0,0.,12.0,0.,12.0,0.,12.0
1980-11-16 04:15:49.300 ,3,1,0.,12.0,0.,12.0,0.,12.0,0.,12.0
1980-11-16 04:16:01.300 ,3,1,0.,12.0,0.,12.0,0.,12.0,0.,12.0
1980-11-16 04:16:13.300 ,3,0,0.,12.0,0.,12.0,0.,12.0,0.,12.0
1980-11-16 04:16:25.300 ,3,0,0.,12.0,0.,12.0,0.,12.0,0.,12.0
1980-11-16 04:16:37.300 ,4,1,0.,12.0,0.,12.0,0.,12.0,0.,12.0
1980-11-16 04:16:49.300 ,4,1,0.,12.0,0.,12.0,0.,12.0,0.,12.0
1980-11-16 04:17:01.300 ,4,0,0.,12.0,0.,12.0,0.,12.0,0.,12.0
1980-11-16 04:17:13.300 ,4,0,0.,12.0,0.,12.0,0.,12.0,0.,12.0
1980-11-16 04:17:25.300 ,5,1,0.,12.0,0.,12.0,0.,12.0,0.,12.0
1980-11-16 04:17:37.300 ,5,1,0.,12.0,0.,12.0,0.,12.0,0.,12.0
1980-11-16 04:17:49.300 ,5,0,0.,12.0,0.,12.0,0.,12.0,0.,12.0
1980-11-16 04:18:01.300 ,5,0,0.,12.0,0.,12.0,0.,12.0,0.,12.0